TIME,DELAY(SENSOR),PRES,OXYGEN,RAWTEMP,T(OPTODE),TCPHASE,FLUOR,BETA(BETA700),BETA(BETA412),BETA(BETA440),CDOM,C(CSC),ED(ED411.90),ED(ED443.80),ED(ED489.40),ED(ED554.70),LU(LU412.20),LU(LU443.80),LU(LU489.40),LU(LU555.00),COMP,TILTX,TILTY,CHECK
1362348138,5803,878.9899902343750000,188.2424926757812500,488.9591064453125000,7.8716259002685550,38.4548301696777340,68,322,97,78,80,11673,2146959670,2147516800,2147291062,2147513398,2147086646,2146926089,2147714294,2147121051,2937,-1,8,39302
1362351735,5803,974.9400024414062000,240.3542022705078000,549.9116210937500000,5.9722180366516110,36.5218696594238300,68,327,97,78,80,11667,2146962889,2147519744,2147299337,2147524251,2147091273,2146920914,2147731620,2147120905,2523,0,8,14102
1362355335,5806,992.4400024414062000,248.6853027343750000,555.9052734375000000,5.7839450836181640,36.2119789123535160,68,329,97,79,80,11666,2146961490,2147518902,2147299584,2147523209,2147088018,2146917915,2147727204,2147118107,176,-1,8,49456
1362358935,5808,990.2299804687500000,255.1544952392578000,560.2451782226562000,5.6474418640136720,35.9764595031738300,68,330,99,79,81,11664,2146962377,2147516068,2147305106,2147522889,2147089142,2146918573,2147731986,2147118610,419,-1,8,5496
1362362535,5804,995.1799926757812000,256.5354919433594000,561.5443725585938000,5.6065502166748050,35.9340400695800800,67,328,98,78,81,11661,2146962368,2147514166,2147299931,2147523638,2147091529,2146913435,2147733302,2147120704,3410,0,8,15762
1362366135,5807,998.6099853515625000,261.2626037597656000,565.3588867187500000,5.4864039421081540,35.7805213928222660,68,330,98,79,79,11656,2146959808,2147516068,2147301229,2147522944,2147090441,2146915227,2147730459,2147119771,136,0,8,42511
1362369735,5806,996.6900024414062000,261.1913146972656000,566.9959106445312000,5.4348068237304690,35.8134307861328100,68,331,99,81,80,11656,2146961408,2147516955,2147301961,2147524708,2147087634,2146920996,2147727990,2147121837,2899,-1,8,3522
1362373335,5809,1002.2700195312500000,264.2918090820312500,567.0319213867188000,5.4336719512939450,35.6695594787597660,67,330,99,79,80,11654,2146960603,2147516416,2147302116,2147524790,2147090340,2146915337,2147730468,2147120457,267,0,8,55490
1362376935,5803,1000.3400268554688000,264.2063903808594000,568.5020141601562000,5.3873162269592285,35.7008781433105500,68,330,99,78,80,11651,2146961161,2147517686,2147301494,2147528082,2147087515,2146915328,2147734491,2147118866,3083,0,8,45535
1362380535,5806,1005.9500122070312000,265.8893127441406000,568.9691772460938000,5.3725800514221190,35.6317787170410160,67,332,98,79,80,11568,2146959881,2147517686,2147299995,2147527021,2147089371,2146919094,2147730925,2147119305,3132,-1,8,42788
1362384135,5807,1007.1699829101562000,263.7260131835937500,566.9613037109375000,5.4358978271484375,35.6946907043457000,67,330,98,79,79,11559,2146961901,2147515008,2147301952,2147527177,2147088265,2146917348,2147728914,2147120082,3232,-1,8,29186
1362387735,5806,1009.8499755859375000,263.8594970703125000,566.7526855468750000,5.4424738883972170,35.6846199035644500,67,332,98,79,80,11561,2146965888,2147512265,2147303122,2147526509,2147086528,2146917952,2147733888,2147118720,2354,0,8,32581
1362391335,5806,1013.2399902343750000,262.8026123046875000,565.5861206054688000,5.4792461395263670,35.7126007080078100,67,332,97,80,81,11557,2146961261,2147515556,2147302235,2147525449,2147089371,2146917814,2147735314,2147121846,3593,-1,8,36471
1362394935,5806,1009.5499877929688000,261.1582031250000000,565.3107299804688000,5.4879231452941895,35.7839393615722660,66,333,99,79,80,11559,2146960045,2147516580,2147303917,2147523712,2147087250,2146918674,2147731163,2147122020,3494,0,8,5747
1362398535,5808,1009.6400146484375000,260.5621948242187500,565.6068725585938000,5.4785881042480470,35.8173789978027340,66,336,98,79,81,11557,2146961051,2147516187,2147302116,2147526957,2147089024,2146923227,2147730468,2147117293,54,0,8,10382
1362402135,5804,1016.7000122070312000,262.5213012695312500,565.5786743164062000,5.4794769287109375,35.7255706787109400,67,334,99,79,80,11545,2146960877,2147512630,2147304082,2147525321,2147090386,2146922834,2147734601,2147118948,3468,-1,8,55102
1362405735,5807,1011.9199829101562000,262.3955078125000000,565.5692138671875000,5.4797778129577640,35.7311210632324200,68,333,98,79,81,11553,2146962240,2147515465,2147301924,2147526244,2147090880,2146920822,2147733467,2147117970,164,0,8,60335
1362409335,5808,1008.5100097656250000,260.3490905761719000,565.7711181640625000,5.4734148979187010,35.8305091857910160,67,336,97,79,81,11557,2146958829,2147516598,2147303616,2147530148,2147088713,2146915968,2147724260,2147120905,3466,0,8,39256
1362412935,5805,1007.2199707031250000,264.5497131347656000,567.8676757812500000,5.4073200225830080,35.6732292175293000,67,338,99,79,81,11554,2146956781,2147516068,2147300873,2147525814,2147088393,2146920950,2147731593,2147120118,3551,-1,8,41611
1362416535,5807,1007.5300292968750000,265.0340881347656000,569.2974243164062000,5.3622260093688965,35.6768608093261700,68,335,99,78,80,11550,2146959890,2147517229,2147300544,2147522523,2147091940,2146919341,2147732032,2147119040,3234,-1,8,42021
1362420135,5803,1008.6699829101562000,265.9576110839844000,570.4968872070312000,5.3243827819824220,35.6562118530273440,68,337,98,78,81,11546,2146959862,2147517394,2147302619,2147525540,2147088841,2146919433,2147734720,2147121344,116,-1,8,24809
1362423735,5804,1014.8099975585938000,266.4476013183594000,569.5661010742188000,5.3537521362304690,35.6168899536132800,67,337,99,80,80,11549,2146959716,2147513773,2147302774,2147523849,2147088978,2146918793,2147730550,2147123958,3463,-1,8,41733
1362427335,5809,1014.0000000000000000,264.8812866210937500,568.2880859375000000,5.3940620422363280,35.6656494140625000,66,337,97,79,80,11549,2146964507,2147516425,2147301869,2147525357,2147088923,2146917641,2147733220,2147122697,279,0,8,7230
1362430935,5806,1015.4099731445312000,261.8947143554687500,566.6984252929688000,5.4441847801208500,35.7749481201171900,67,338,97,80,82,11501,2146964406,2147516699,2147300955,2147525449,2147088795,2146917641,2147734226,2147120978,119,0,8,24662
1362434535,5805,1008.3599853515625000,262.0209960937500000,567.2791137695312000,5.4258799552917480,35.7796707153320300,66,337,99,79,81,11503,2146965348,2147516397,2147301394,2147524342,2147089078,2146917430,2147730194,2147122852,3027,0,8,36211
1362438135,5807,1008.0999755859375000,261.7439880371094000,567.2838745117188000,5.4257278442382810,35.7927894592285160,68,337,97,79,81,11501,2146962614,2147515830,2147301238,2147523830,2147090669,2146916160,2147734043,2147117430,191,0,8,56927
1362441735,5804,1007.0100097656250000,264.2644958496094000,568.7620239257812000,5.3791160583496090,35.7029304504394500,67,339,98,79,80,11500,2146960374,2147515392,2147302637,2147526034,2147089024,2146916772,2147731200,2147122688,3393,-1,8,2705
1362445335,5805,1014.0499877929688000,265.5918884277344000,569.3209838867188000,5.3614830970764160,35.6517601013183600,67,340,99,79,80,11499,2146960164,2147511954,2147304713,2147526546,2147086646,2146920237,2147736374,2147120146,3536,-1,8,61540
1362448935,5806,1017.7299804687500000,266.0714111328125000,569.2128295898438000,5.3648948669433590,35.6279602050781250,66,341,99,78,80,11494,2146960941,2147514523,2147303579,2147526939,2147091419,2146916288,2147732260,2147117869,3551,-1,8,52035
1362452535,5804,1016.0900268554688000,264.0091857910156000,568.8355712890625000,5.3767948150634770,35.7157211303710940,67,340,99,78,80,11496,2146962203,2147516553,2147301385,2147526372,2147088987,2146914258,2147734070,2147120146,3397,-1,8,10017
1362456135,5805,1016.0000000000000000,263.6841125488281000,569.0305786132812000,5.3706421852111820,35.7341690063476560,68,342,97,79,81,11499,2146959643,2147515209,2147304155,2147525750,2147088073,2146918454,2147734372,2147118226,3471,0,8,58281
1362459735,5806,1018.2100219726562000,264.0079956054687500,569.4995727539062000,5.3558478355407715,35.7279815673828100,67,342,98,78,81,11492,2146960649,2147514477,2147302345,2147524480,2147087058,2146920676,2147735762,2147116672,151,-1,8,13651
1362463335,5808,1016.2299804687500000,264.8323974609375000,569.8712768554688000,5.3441238403320310,35.6967697143554700,67,341,97,80,81,11495,2146961508,2147517174,2147300388,2147523986,2147087862,2146913481,2147729243,2147118043,39,0,8,48565
1362466935,5809,1017.4400024414062000,264.4479980468750000,569.1676025390625000,5.3663220405578610,35.7020912170410160,68,341,98,79,80,11494,2146959698,2147519625,2147302491,2147524461,2147090880,2146922916,2147732790,2147120795,101,0,8,16619
1362470535,5801,1011.4199829101562000,264.4643859863281000,569.1801147460938000,5.3659272193908690,35.7010307312011700,67,339,99,78,81,11494,2146958610,2147518162,2147303250,2147525860,2147088182,2146920694,2147728868,2147116205,3485,0,8,48503
1362474135,5809,1016.2800292968750000,265.4291076660156000,569.0930175781250000,5.3686771392822270,35.6550216674804700,68,340,99,81,80,11491,2146963190,2147516013,2147302848,2147527268,2147091437,2146917092,2147727936,2147119597,3591,0,8,26109
1362477735,5808,1017.4699707031250000,266.2999877929687500,569.3786010742188000,5.3596668243408200,35.6201705932617200,67,341,98,79,82,11491,2146961700,2147515821,2147303597,2147528182,2147091446,2146913426,2147726994,2147123922,394,0,8,6688
1362481335,5808,1012.8699951171875000,264.1625976562500000,569.0980224609375000,5.3685188293457030,35.7136497497558600,68,348,98,78,81,11487,2146961673,2147516525,2147303158,2147527826,2147089819,2146917476,2147730075,2147123593,264,0,8,4566
1362484935,5805,1013.9899902343750000,264.9166870117187500,569.2368774414062000,5.3641381263732910,35.6811981201171900,67,342,98,79,80,11493,2146961398,2147518720,2147301577,2147525238,2147087442,2146916178,2147733101,2147120128,3510,0,8,12455
1362488535,5806,1011.5100097656250000,265.6073913574219000,569.2564086914062000,5.3635201454162600,35.6497993469238300,67,344,98,79,80,11491,2146960393,2147516132,2147301933,2147526948,2147087963,2146918848,2147736064,2147120667,690,0,8,40173
1362492135,5807,1015.7899780273438000,267.6424865722656000,570.7905273437500000,5.3151168823242190,35.5846405029296900,68,341,98,81,80,11484,2146956717,2147521106,2147306002,2147524260,2147090230,2146922349,2147731117,2147120237,552,-1,8,36772
1362494155,5806,1015.7700195312500000,267.0887145996094000,570.4473876953125000,5.3259449005126950,35.6038513183593750,67,342,98,80,80,11617,2146962221,2147516306,2147301430,2147528347,2147087606,2146919424,2147731227,2147119926,3301,-1,8,46114
